[[{"header":{"parameterUnit":"m.s-1","parameterCategory":1,"la1":30.2991,"la2":30.254,"lo1":-89.0895,"lo2":-89.0444,"dy":0.0017,"dx":0.0017,"nx":28,"ny":28,"refTime":"2025-12-29T09:00:00:Z","depth":0,"parameterNumber":2,"parameterNumberName":"U-component_of_WINDS"},"data":[0,0,0,0,0,0,0,0,0,0,0,0,0,0,0,0,0,0,0,0,0,0,0,0,0,0,0,0,0,0,0,0,0,0,0,0,0,0,0,0,0,0,0,0,0,0,0,0,0,0,0,0,0,0,0,0,0,0,2.2195,2.2194,0,2.2157,2.2157,2.2156,2.2109,2.2108,2.2107,2.2107,2.2067,2.2066,2.2066,0,0,0,0,0,0,0,0,0,0,0,0,0,2.2225,2.2225,2.2195,2.2194,2.2194,2.2157,2.2157,2.2156,2.2109,2.2108,2.2107,2.2106,2.2067,2.2066,2.2066,0,0,0,0,0,0,0,0,0,0,0,0,0,2.2202,2.2225,2.2195,2.2166,2.2163,2.2157,2.2157,2.2156,2.2109,2.2108,2.2107,2.2106,2.2067,2.2066,2.2066,2.2085,0,0,2.2064,2.2064,0,0,0,0,0,0,0,0,2.2203,2.2201,2.2171,2.2168,2.2164,2.2137,2.2153,2.2132,2.2109,2.2129,2.2107,2.2105,2.2091,2.2088,2.2084,2.2084,2.2082,2.2064,2.2064,2.2064,2.2063,0,0,0,0,0,0,0,2.2205,2.2202,2.218,2.217,2.2166,2.2155,2.215,2.2149,2.2117,2.2128,2.2124,2.212,2.2089,2.2084,2.2082,2.2081,2.2064,2.2064,2.2063,2.2063,2.2097,2.2098,0,0,0,0,0,0,2.2211,2.2204,2.2181,2.2179,2.2182,2.2155,2.215,2.2147,2.2117,2.2111,2.2121,2.2118,2.2086,2.2083,2.2081,2.2102,2.2064,2.2063,2.2063,2.2096,2.2097,2.2099,0,0,0,0,0,0,2.2212,2.221,2.2183,2.219,2.2186,2.2156,2.2152,2.2147,2.2142,2.2112,2.2106,2.2123,2.2085,2.2081,2.2085,2.21,2.2063,2.2062,2.2094,2.2096,2.2098,2.2146,0,0,0,0,0,0,2.2213,2.221,2.2217,2.2191,2.2186,2.2188,2.2153,2.2147,2.2141,2.2137,2.2112,2.2106,2.2084,2.2086,2.2085,2.2099,2.2062,2.2093,2.2095,2.2097,2.2143,2.2149,2.2154,0,0,0,0,0,2.2214,2.2231,2.2218,2.2215,2.2194,2.2189,2.2186,2.216,2.2143,2.215,2.2131,2.2107,2.2099,2.2087,2.2085,2.2099,2.2092,2.2094,2.2097,2.214,2.2148,2.2154,0,0,0,0,0,0,2.2259,2.2227,2.2212,2.2221,2.2208,2.2181,2.2188,2.2168,2.2159,2.2156,2.2123,2.2118,2.2126,2.2113,2.21,2.2117,2.2092,2.2094,2.2125,2.2132,2.2138,2.2141,2.2062,0,0,0,0,0,2.2271,2.2269,2.2241,2.2252,2.2246,2.2219,2.2215,2.2197,2.2182,2.2176,2.2157,2.2143,2.2137,2.2134,2.2127,2.2141,2.2135,2.215,2.2156,2.2161,2.2163,2.217,2.2177,2.2107,2.2107,2.2107,0,0,2.2293,2.2276,2.2276,2.2261,2.2248,2.2248,2.2214,2.2214,2.2214,2.2175,2.2178,2.2164,2.2146,2.2156,2.2158,2.2145,2.2181,2.2164,2.2168,2.2168,2.2174,2.218,2.2186,2.2109,2.2109,2.2109,0,0,2.2334,2.2321,2.2328,2.2317,2.23,2.2281,2.2284,2.226,2.2249,2.2252,2.2223,2.2222,2.2213,2.2202,2.2195,2.2234,2.2212,2.2233,2.2263,2.227,2.2276,2.2281,2.2295,2.23,2.2235,2.2235,2.2235,0,2.2364,2.2362,2.2335,2.2338,2.2332,2.2299,2.2307,2.2297,2.2278,2.2275,2.226,2.2249,2.2235,2.2241,2.2251,2.2246,2.2248,2.2235,2.2277,2.2282,2.2286,2.2299,2.2305,2.2238,2.2238,2.2237,2.2237,0,2.24,2.2399,2.2408,2.2391,2.2387,2.2392,2.2366,2.2365,2.2347,2.2331,2.2334,2.2316,2.2306,2.2306,2.2288,2.231,2.2303,2.2283,2.2257,2.2295,2.2307,2.2312,2.2242,2.2241,2.224,2.2239,0,0,2.2467,2.2437,2.244,2.2433,2.2412,2.241,2.2415,2.2406,2.2405,2.2394,2.2397,2.2391,2.2373,2.2366,2.2347,2.2353,2.2386,2.2333,2.2332,2.2344,2.2411,2.2425,2.2432,2.2372,2.2373,2.2374,2.2412,0,2.2503,2.2509,2.2486,2.2498,2.2497,2.2467,2.247,2.2458,2.2444,2.2441,2.2424,2.2421,2.2398,2.2393,2.2399,2.2381,2.2399,2.2378,2.2375,2.2375,2.238,2.2438,2.2453,2.249,2.2417,2.2417,2.2418,0,2.2546,2.2539,2.2551,2.253,2.2529,2.2533,2.2523,2.2521,2.2507,2.2496,2.2489,2.2468,2.2471,2.2447,2.2451,2.2437,2.2435,2.2426,2.2427,2.2425,2.2398,2.2437,2.2501,2.2506,2.2425,2.2424,2.2424,0,2.2594,2.2586,2.2593,2.2587,2.2564,2.2568,2.2558,2.2543,2.2539,2.2531,2.2528,2.252,2.2516,2.251,2.2488,2.2472,2.2495,2.2468,2.2486,2.2486,2.2491,2.2491,2.2555,2.249,2.249,2.249,2.249,0,2.2637,2.2646,2.2614,2.2618,2.2627,2.2601,2.2611,2.2598,2.2585,2.2586,2.256,2.2561,2.2531,2.253,2.2512,2.2519,2.2517,2.2508,2.2503,2.251,2.2512,2.2508,2.2504,2.2491,2.2491,2.2491,2.2491,0,2.2692,2.267,2.2676,2.2654,2.2648,2.2656,2.2637,2.264,2.2625,2.2627,2.2626,2.2601,2.2598,2.2575,2.2567,2.2555,2.2569,2.2559,2.2573,2.257,2.2589,2.2587,2.2652,2.2659,2.2591,2.2591,2.2592,0,2.272,2.2726,2.2706,2.2705,2.2697,2.2696,2.2692,2.2667,2.2665,2.265,2.2655,2.265,2.2645,2.2642,2.2623,2.2617,2.2607,2.263,2.2606,2.2613,2.2608,2.2607,2.2608,2.2635,2.2636,2.2637,2.2637,0,2.2774,2.2763,2.276,2.2753,2.275,2.2743,2.2735,2.2736,2.2708,2.2707,2.2704,2.27,2.2693,2.2688,2.268,2.2669,2.2649,2.2646,2.2649,2.2656,2.2665,2.2661,2.2587,2.2644,2.2643,2.2643,2.2642,2.2642,2.2816,2.282,2.2807,2.2804,2.2795,2.2789,2.2791,2.2776,2.2774,2.2766,2.2751,2.2751,2.2738,2.2724,2.2716,2.2716,2.2704,2.2709,2.271,2.2712,2.2716,2.2665,2.2714,2.2714,2.2714,2.2713,2.2713,0,2.2868,2.2858,2.2856,2.2846,2.2844,2.2826,2.2816,2.2816,2.2816,2.2806,2.2802,2.2799,2.2796,2.2778,2.2772,2.2775,2.2766,2.2775,2.2774,2.2772,2.2727,2.2724,2.2782,2.2782,2.2782,2.2782,2.2782,2.2782,2.2895,2.2902,2.289,2.2893,2.2883,2.2883,2.2879,2.2873,2.2865,2.2864,2.2861,2.285,2.2837,2.283,2.2826,2.2821,2.282,2.2832,2.2824,2.2782,2.2775,2.2769,2.2766,2.2832,2.2832,2.2869,2.287,2.287]},{"header":{"parameterUnit":"m.s-1","parameterCategory":1,"la1":30.2991,"la2":30.254,"lo1":-89.0895,"lo2":-89.0444,"dy":0.0017,"dx":0.0017,"nx":28,"ny":28,"refTime":"2025-12-29T09:00:00:Z","depth":0,"parameterNumber":3,"parameterNumberName":"V-component_of_WINDS"},"data":[0,0,0,0,0,0,0,0,0,0,0,0,0,0,0,0,0,0,0,0,0,0,0,0,0,0,0,0,0,0,0,0,0,0,0,0,0,0,0,0,0,0,0,0,0,0,0,0,0,0,0,0,0,0,0,0,0,0,-5.73,-5.7301,0,-5.742,-5.7421,-5.7422,-5.7412,-5.741,-5.7408,-5.7406,-5.7524,-5.7528,-5.7533,0,0,0,0,0,0,0,0,0,0,0,0,0,-5.706,-5.7064,-5.73,-5.7301,-5.7303,-5.7419,-5.7421,-5.7423,-5.7412,-5.741,-5.7408,-5.7406,-5.7522,-5.7528,-5.7534,0,0,0,0,0,0,0,0,0,0,0,0,0,-5.717,-5.7066,-5.73,-5.7312,-5.7314,-5.7419,-5.7421,-5.7423,-5.7413,-5.741,-5.7407,-5.7405,-5.752,-5.7527,-5.7534,-5.7633,0,0,-5.7556,-5.7559,0,0,0,0,0,0,0,0,-5.7164,-5.7179,-5.7309,-5.7311,-5.7314,-5.7398,-5.7379,-5.7493,-5.7413,-5.7375,-5.7406,-5.7403,-5.7484,-5.7494,-5.7522,-5.7639,-5.7644,-5.7557,-5.7561,-5.7564,-5.7567,0,0,0,0,0,0,0,-5.7156,-5.7174,-5.7347,-5.731,-5.7314,-5.731,-5.7323,-5.7401,-5.7443,-5.7378,-5.7378,-5.7392,-5.7485,-5.7515,-5.7525,-5.7645,-5.7557,-5.7563,-5.7568,-5.757,-5.7851,-5.7854,0,0,0,0,0,0,-5.7146,-5.7167,-5.7343,-5.7351,-5.7231,-5.7317,-5.7331,-5.7374,-5.7442,-5.745,-5.7394,-5.7391,-5.7504,-5.7516,-5.7529,-5.7651,-5.7564,-5.7571,-5.7575,-5.7848,-5.7852,-5.7856,0,0,0,0,0,0,-5.7141,-5.7162,-5.7338,-5.7259,-5.7281,-5.7324,-5.7372,-5.7378,-5.7408,-5.7455,-5.7462,-5.7418,-5.7502,-5.7519,-5.7608,-5.7655,-5.7574,-5.7581,-5.7845,-5.785,-5.7854,-5.7894,0,0,0,0,0,0,-5.7134,-5.716,-5.7199,-5.726,-5.7286,-5.7417,-5.7375,-5.7382,-5.7421,-5.7418,-5.7479,-5.7486,-5.7502,-5.7598,-5.7615,-5.7663,-5.7587,-5.7841,-5.7847,-5.7852,-5.7889,-5.79,-5.7909,0,0,0,0,0,-5.7126,-5.7204,-5.7201,-5.7222,-5.7335,-5.742,-5.7434,-5.7452,-5.7425,-5.7464,-5.7494,-5.7484,-5.7647,-5.7607,-5.7627,-5.7677,-5.7838,-5.7845,-5.7852,-5.7885,-5.7898,-5.7909,0,0,0,0,0,0,-5.7144,-5.7212,-5.7209,-5.731,-5.736,-5.7418,-5.7467,-5.7465,-5.7522,-5.7517,-5.7535,-5.7549,-5.7639,-5.7667,-5.7621,-5.7778,-5.7738,-5.775,-5.7756,-5.7769,-5.7779,-5.7771,-5.7593,0,0,0,0,0,-5.7161,-5.7225,-5.728,-5.7363,-5.7389,-5.7424,-5.7461,-5.7471,-5.7523,-5.7543,-5.758,-5.7629,-5.7691,-5.7732,-5.7791,-5.7893,-5.7907,-5.7938,-5.7948,-5.7956,-5.7965,-5.8023,-5.8038,-5.7879,-5.7879,-5.7879,0,0,-5.7194,-5.7239,-5.7278,-5.7368,-5.7408,-5.7474,-5.7441,-5.7512,-5.7561,-5.7553,-5.7641,-5.767,-5.7726,-5.7823,-5.7867,-5.7848,-5.8013,-5.7965,-5.7971,-5.7976,-5.8032,-5.8047,-5.8061,-5.7884,-5.7883,-5.7882,0,0,-5.7289,-5.7329,-5.7404,-5.7445,-5.7507,-5.753,-5.7548,-5.7608,-5.7627,-5.7716,-5.7713,-5.777,-5.7877,-5.7918,-5.7952,-5.8066,-5.8059,-5.8084,-5.8137,-5.8193,-5.8206,-5.8217,-5.8259,-5.8273,-5.8094,-5.8094,-5.8094,0,-5.7322,-5.7423,-5.7442,-5.7515,-5.7555,-5.7554,-5.763,-5.7668,-5.7745,-5.7773,-5.7751,-5.7887,-5.7924,-5.8032,-5.806,-5.8087,-5.8109,-5.8078,-5.8202,-5.8214,-5.8225,-5.8265,-5.828,-5.8097,-5.8097,-5.8096,-5.8096,0,-5.7461,-5.7531,-5.7584,-5.7662,-5.7708,-5.7781,-5.7812,-5.7856,-5.7862,-5.7888,-5.7979,-5.8024,-5.8094,-5.812,-5.8126,-5.8229,-5.8216,-5.8199,-5.8159,-5.8242,-5.828,-5.8296,-5.8101,-5.81,-5.8099,-5.8098,0,0,-5.757,-5.766,-5.7679,-5.7715,-5.7784,-5.7838,-5.7911,-5.7982,-5.8021,-5.8074,-5.8137,-5.8228,-5.8213,-5.8253,-5.8263,-5.8312,-5.8401,-5.8289,-5.829,-5.8309,-5.852,-5.8533,-5.8551,-5.8397,-5.84,-5.8403,-5.8515,0,-5.7673,-5.7806,-5.7827,-5.7943,-5.8009,-5.801,-5.8074,-5.8123,-5.815,-5.8208,-5.8236,-5.8302,-5.8276,-5.83,-5.8349,-5.838,-5.8444,-5.8372,-5.8456,-5.8458,-5.8443,-5.857,-5.8584,-5.8689,-5.853,-5.8533,-5.8534,0,-5.781,-5.787,-5.7994,-5.8057,-5.8085,-5.8143,-5.8211,-5.8267,-5.8323,-5.8338,-5.8384,-5.8389,-5.8466,-5.8424,-5.8529,-5.848,-5.8516,-5.8536,-5.8541,-5.855,-5.8502,-5.8584,-5.8722,-5.8738,-5.8558,-5.8556,-5.8554,0,-5.7879,-5.7991,-5.808,-5.8111,-5.8185,-5.8226,-5.8259,-5.8312,-5.8354,-5.8413,-5.8441,-5.8506,-5.8543,-5.8593,-5.8616,-5.8583,-5.8721,-5.868,-5.8736,-5.8736,-5.8765,-5.8763,-5.8913,-5.8787,-5.8787,-5.8786,-5.8786,0,-5.7992,-5.8068,-5.8113,-5.8167,-5.8253,-5.8276,-5.836,-5.8391,-5.8439,-5.85,-5.8504,-5.856,-5.8587,-5.8647,-5.8665,-5.8751,-5.8767,-5.8782,-5.8786,-5.8782,-5.878,-5.8806,-5.8799,-5.8791,-5.879,-5.8789,-5.8788,0,-5.8083,-5.8116,-5.8214,-5.8277,-5.8295,-5.8356,-5.841,-5.8463,-5.849,-5.8567,-5.8586,-5.8627,-5.8699,-5.8727,-5.8814,-5.8826,-5.8926,-5.8923,-5.8908,-5.8909,-5.8964,-5.8959,-5.9135,-5.916,-5.9017,-5.9019,-5.902,0,-5.8153,-5.8212,-5.8284,-5.8326,-5.8361,-5.8428,-5.8472,-5.8497,-5.8543,-5.8612,-5.8657,-5.873,-5.8789,-5.8903,-5.894,-5.9007,-5.9007,-5.9065,-5.9017,-5.9012,-5.901,-5.9006,-5.9013,-5.9073,-5.9075,-5.9076,-5.9077,0,-5.8275,-5.8289,-5.8353,-5.8424,-5.8477,-5.8533,-5.8588,-5.8622,-5.8656,-5.8706,-5.8781,-5.8828,-5.8918,-5.899,-5.906,-5.9092,-5.9091,-5.9092,-5.9109,-5.9106,-5.9095,-5.9103,-5.8933,-5.9087,-5.9086,-5.9086,-5.9085,-5.9085,-5.8359,-5.8412,-5.8472,-5.8544,-5.8588,-5.864,-5.8694,-5.8729,-5.8793,-5.887,-5.8881,-5.8961,-5.9017,-5.9111,-5.9146,-5.9209,-5.9194,-5.9218,-5.9224,-5.923,-5.9234,-5.9085,-5.9222,-5.9221,-5.9221,-5.9221,-5.9221,0,-5.8482,-5.8521,-5.8587,-5.8665,-5.8722,-5.8718,-5.8779,-5.8826,-5.8898,-5.8951,-5.9011,-5.9098,-5.9168,-5.9212,-5.9282,-5.9324,-5.9326,-5.9342,-5.934,-5.9348,-5.9243,-5.9222,-5.934,-5.934,-5.934,-5.934,-5.934,-5.934,-5.8553,-5.8644,-5.8666,-5.878,-5.8818,-5.8899,-5.8934,-5.8982,-5.9025,-5.9123,-5.9182,-5.9211,-5.9261,-5.9336,-5.94,-5.9411,-5.9437,-5.9455,-5.9465,-5.9367,-5.9354,-5.9343,-5.9323,-5.9461,-5.9461,-5.9564,-5.9565,-5.9566]}]]